| time (UTC) | temp F | wind direction | speed knots | gust knots | rain 1hr in | rain 24hr in | rain mn in | humidity % | barometer mb |
| 20260904171514 | 51 | 122 | 0.0 | 0.0 | 0.00 | 0.00 | 0.00 | 79 | 1012.7 |
| 20260904171010 | 51 | 122 | 0.0 | 0.0 | 0.00 | 0.00 | 0.00 | 79 | 1012.7 |
| 20260904170505 | 51 | 104 | 0.0 | 0.0 | 0.00 | 0.00 | 0.00 | 81 | 1012.7 |
| 20260904170001 | 48 | 81 | 0.0 | 0.9 | 0.00 | 0.00 | 0.00 | 84 | 1012.4 |
| 20260904165459 | 48 | 110 | 0.0 | 0.0 | 0.00 | 0.00 | 0.00 | 85 | 1012.5 |
| 20260904164959 | 49 | 124 | 0.0 | 0.0 | 0.00 | 0.00 | 0.00 | 84 | 1012.4 |
| 20260904164453 | 49 | 104 | 0.0 | 0.0 | 0.00 | 0.00 | 0.00 | 84 | 1012.3 |
| 20260904163438 | 48 | 98 | 0.0 | 0.0 | 0.00 | 0.00 | 0.00 | 86 | 1012.2 |
| 20260904162938 | 48 | 98 | 0.0 | 0.0 | 0.00 | 0.00 | 0.00 | 86 | 1012.2 |
| 20260904162433 | 48 | 60 | 0.9 | 1.7 | 0.00 | 0.00 | 0.00 | 86 | 1012.3 |
| 20260904161928 | 49 | 138 | 0.0 | 0.9 | 0.00 | 0.00 | 0.00 | 88 | 1012.4 |
| 20260904161424 | 47 | 104 | 0.9 | 0.9 | 0.00 | 0.00 | 0.00 | 91 | 1012.1 |
| 20260904160920 | 46 | 242 | 1.7 | 1.7 | 0.00 | 0.00 | 0.00 | 93 | 1012.0 |
| 20260904160414 | 46 | 134 | 0.9 | 1.7 | 0.00 | 0.00 | 0.00 | 96 | 1012.4 |
| 20260904155909 | 46 | 144 | 0.9 | 0.9 | 0.00 | 0.00 | 0.00 | 97 | 1012.2 |
| 20260904155404 | 45 | 200 | 0.9 | 1.7 | 0.00 | 0.00 | 0.00 | 98 | 1012.0 |
| 20260904154903 | 45 | 80 | 0.0 | 0.9 | 0.00 | 0.00 | 0.00 | 99 | 1012.0 |
| 20260904154357 | 45 | 177 | 0.9 | 1.7 | 0.00 | 0.00 | 0.00 | 99 | 1012.2 |
| 20260904153853 | 45 | 87 | 1.7 | 1.7 | 0.00 | 0.00 | 0.00 | 99 | 1012.1 |
| 20260904153348 | 45 | 17 | 0.9 | 2.6 | 0.00 | 0.00 | 0.00 | 99 | 1012.0 |
| 20260904152845 | 44 | 64 | 0.9 | 0.9 | 0.00 | 0.00 | 0.00 | 99 | 1012.1 |
| 20260904152344 | 44 | 125 | 1.7 | 1.7 | 0.00 | 0.00 | 0.00 | 99 | 1012.1 |
| 20260904151838 | 44 | 201 | 1.7 | 1.7 | 0.00 | 0.00 | 0.00 | 99 | 1012.1 |
| 20260904151338 | 44 | 58 | 2.6 | 2.6 | 0.00 | 0.00 | 0.00 | 99 | 1012.0 |
| 20260904150834 | 44 | 305 | 1.7 | 1.7 | 0.00 | 0.00 | 0.00 | 99 | 1011.9 |
| 20260904150329 | 43 | 131 | 0.0 | 0.0 | 0.00 | 0.00 | 0.00 | 99 | 1011.9 |
| 20260904145826 | 43 | 102 | 0.9 | 1.7 | 0.00 | 0.00 | 0.00 | 99 | 1011.9 |
| 20260904145323 | 43 | 95 | 0.9 | 0.9 | 0.00 | 0.00 | 0.00 | 99 | 1012.1 |
| 20260904144819 | 43 | 44 | 1.7 | 1.7 | 0.00 | 0.00 | 0.00 | 99 | 1011.9 |
| 20260904144314 | 43 | 111 | 0.9 | 0.9 | 0.00 | 0.00 | 0.00 | 99 | 1011.9 |
| 20260904143809 | 43 | 134 | 0.0 | 0.9 | 0.00 | 0.00 | 0.00 | 99 | 1011.9 |
| 20260904143306 | 43 | 98 | 0.0 | 0.0 | 0.00 | 0.00 | 0.00 | 99 | 1011.8 |
| 20260904142802 | 42 | 128 | 0.0 | 0.9 | 0.00 | 0.00 | 0.00 | 99 | 1012.1 |
| 20260904142257 | 43 | 94 | 0.9 | 0.9 | 0.00 | 0.00 | 0.00 | 99 | 1011.9 |
| 20260904141752 | 43 | 71 | 0.9 | 0.9 | 0.00 | 0.00 | 0.00 | 99 | 1011.8 |
| 20260904141248 | 43 | 139 | 0.0 | 0.0 | 0.00 | 0.00 | 0.00 | 99 | 1011.4 |